Regional Weather Roundup
Issued by NWS

Home | Current Version | Previous Version | Graphics & Text | Print | Product List | Glossary On
Versions: 1 2 3 4 5 6 7 8 9 10 11 12 13 14 15 16 17 18 19 20 21 22 23 24 25 26 27 28 29 30 31 32 33 34 35 36 37 38 39 40 41 42 43 44 45 46 47 48 49 50
000
ASUS44 KMEG 231210
RWRTN
TENNESSEE HOURLY STATE WEATHER ROUNDUP
NATIONAL WEATHER SERVICE MEMPHIS TN
600 AM CST MON JAN 23 2017

TNZ002-004-019-021-049-052-054-088>092-231300-
WEST TENNESSEE

CITY           SKY/WX    TMP DP  RH WIND       PRES   REMARKS
MEMPHIS INTL   PTCLDY    43  37  79 NW10      29.72R
NWS MEMPHIS      N/A     43 N/A N/A MISG        N/A
JACKSON        CLOUDY    45  38  76 NW20      29.66R
DYERSBURG      PTCLDY    43  34  70 N15G21    29.69R
UNION CITY     CLEAR     39  39 100 NW14      29.65R WCI  31
PARIS          CLOUDY    39  36  87 NW3G18    29.62R
HUNTINGDON     CLOUDY    45  39  81 NW8G20    29.62R
$$

TNZ008-025-027-028-033-062-065-066-231300-
NORTH MIDDLE TENNESSEE

CITY           SKY/WX    TMP DP  RH WIND       PRES   REMARKS
NASHVILLE      CLOUDY    51  45  79 NW24G35   29.46R
PORTLAND       CLOUDY    50  46  87 N23G39    29.45R
CLARKSVILLE    CLOUDY    46  40  79 NW25G32   29.55R
SMYRNA         CLOUDY    52  48  86 NW23G36   29.45R
GALLATIN       CLOUDY    52  48  87 NW16G31   29.46R
CROSSVILLE     CLOUDY    51  48  89 N17G30    29.30R
$$

TNZ061-075-076-078-094-096-097-231300-
SOUTH MIDDLE TENNESSEE

CITY           SKY/WX    TMP DP  RH WIND       PRES   REMARKS
TULLAHOMA      CLOUDY    50  50 100 NW23      29.39R
WINCHESTER     CLOUDY    52  50  93 NW12      29.36R
MCMINNVILLE    CLOUDY    54  54 100 NW14      29.34R
COLUMBIA       CLOUDY    52  52 100 NW16      29.48R
SHELBYVILLE    CLOUDY    54  52  94 NW18G29   29.41R
$$

TNZ017-018-042-046-047-231300-
NORTHEAST TENNESSEE

CITY           SKY/WX    TMP DP  RH WIND       PRES   REMARKS
TRI CITIES     RAIN      50  48  93 NE7       29.20R FOG
ELIZABETHTON   RAIN      50  50 100 CALM      29.19R
$$

TNZ012-013-036-069-073-074-231300-
CENTRAL EAST TENNESSEE

CITY           SKY/WX    TMP DP  RH WIND       PRES   REMARKS
KNOXVILLE      LGT RAIN  49  46  90 W7        29.24R
OAK RIDGE      CLOUDY    50  47  89 CALM      29.26R
GATLINBURG     CLOUDY    48  46  93 W7        29.23R
MORRISTOWN     CLOUDY    50  50 100 W7        29.22R
JACKSBORO      CLOUDY    50  50 100 CALM      29.28R FOG
$$

TNZ083-085-099-231300-
SOUTHEAST TENNESSEE

CITY           SKY/WX    TMP DP  RH WIND       PRES   REMARKS
CHATTANOOGA    LGT RAIN  49  47  93 CALM      29.29R
$$

SKY/WX REPORTED AS FAIR MEANS FEW OR NO CLOUDS BELOW
12 THOUSAND FEET.




USA.gov is the U.S. government's official web portal to all federal, state and local government web resources and services.